[[{"header":{"parameterUnit":"m.s-1","parameterCategory":1,"la1":30.2991,"la2":30.254,"lo1":-89.0895,"lo2":-89.0444,"dy":0.0017,"dx":0.0017,"nx":28,"ny":28,"refTime":"2024-02-05T09:00:00:Z","depth":0,"parameterNumber":2,"parameterNumberName":"U-component_of_WINDS"},"data":[0,0,0,0,0,0,0,0,0,0,0,0,0,0,0,0,0,0,0,0,0,0,0,0,0,0,0,0,0,0,0,0,0,0,0,0,0,0,0,0,0,0,0,0,0,0,0,0,0,0,0,0,0,0,0,0,0,0,-1.3311,-1.3312,0,-1.335,-1.3351,-1.3351,-1.3328,-1.3327,-1.3325,-1.3324,-1.3365,-1.3368,-1.337,0,0,0,0,0,0,0,0,0,0,0,0,0,-1.3216,-1.3218,-1.3311,-1.3312,-1.3312,-1.335,-1.3351,-1.3351,-1.3328,-1.3327,-1.3325,-1.3324,-1.3365,-1.3367,-1.337,0,0,0,0,0,0,0,0,0,0,0,0,0,-1.3257,-1.3219,-1.3311,-1.3305,-1.3305,-1.335,-1.3351,-1.3351,-1.3328,-1.3327,-1.3325,-1.3323,-1.3364,-1.3367,-1.337,-1.3424,0,0,-1.338,-1.3381,0,0,0,0,0,0,0,0,-1.3254,-1.326,-1.3305,-1.3306,-1.3305,-1.3332,-1.3332,-1.3376,-1.3329,-1.3319,-1.3324,-1.3322,-1.3356,-1.336,-1.3371,-1.3426,-1.3427,-1.338,-1.3382,-1.3384,-1.3385,0,0,0,0,0,0,0,-1.3252,-1.3258,-1.3327,-1.3306,-1.3306,-1.33,-1.3304,-1.334,-1.3347,-1.332,-1.3318,-1.3323,-1.3356,-1.3368,-1.3371,-1.3428,-1.338,-1.3383,-1.3385,-1.3386,-1.3528,-1.3529,0,0,0,0,0,0,-1.3249,-1.3256,-1.3325,-1.3328,-1.3275,-1.3303,-1.3308,-1.3325,-1.3346,-1.3348,-1.3325,-1.3322,-1.3363,-1.3368,-1.3373,-1.3437,-1.3384,-1.3387,-1.3388,-1.3526,-1.3528,-1.353,0,0,0,0,0,0,-1.3247,-1.3256,-1.3324,-1.3291,-1.33,-1.3307,-1.3327,-1.3327,-1.3339,-1.335,-1.3351,-1.3336,-1.3362,-1.3368,-1.3411,-1.3438,-1.3388,-1.3391,-1.3524,-1.3526,-1.3529,-1.3565,0,0,0,0,0,0,-1.3245,-1.3255,-1.3276,-1.3292,-1.3302,-1.3362,-1.3329,-1.3329,-1.3345,-1.3342,-1.3361,-1.3362,-1.3361,-1.3406,-1.3414,-1.3441,-1.3393,-1.3521,-1.3525,-1.3528,-1.3561,-1.3568,-1.3574,0,0,0,0,0,-1.3241,-1.3285,-1.3277,-1.3285,-1.3327,-1.3363,-1.3369,-1.3366,-1.3347,-1.3368,-1.3374,-1.3361,-1.3433,-1.3411,-1.3419,-1.3448,-1.352,-1.3524,-1.3528,-1.3558,-1.3567,-1.3574,0,0,0,0,0,0,-1.3272,-1.3287,-1.3278,-1.3328,-1.3344,-1.3359,-1.3385,-1.3376,-1.3398,-1.3394,-1.339,-1.3395,-1.3439,-1.3448,-1.3423,-1.35,-1.3473,-1.3479,-1.3494,-1.3502,-1.3508,-1.3506,-1.3396,0,0,0,0,0,-1.3284,-1.3312,-1.3323,-1.3366,-1.3375,-1.3379,-1.3394,-1.3391,-1.3407,-1.3414,-1.3424,-1.3441,-1.3467,-1.3485,-1.3509,-1.3562,-1.3565,-1.3585,-1.3592,-1.3597,-1.3603,-1.363,-1.3639,-1.3543,-1.3543,-1.3543,0,0,-1.3311,-1.3322,-1.334,-1.3373,-1.3385,-1.3414,-1.3385,-1.3416,-1.3438,-1.3419,-1.346,-1.3468,-1.3486,-1.3534,-1.3555,-1.3542,-1.363,-1.3602,-1.3607,-1.361,-1.3636,-1.3645,-1.3653,-1.3546,-1.3546,-1.3545,0,0,-1.3374,-1.3385,-1.3422,-1.3434,-1.3452,-1.3454,-1.3463,-1.3479,-1.3483,-1.3523,-1.351,-1.3535,-1.358,-1.3594,-1.3607,-1.3672,-1.3662,-1.368,-1.3716,-1.3742,-1.375,-1.3757,-1.378,-1.3789,-1.3686,-1.3686,-1.3686,0,-1.3404,-1.3447,-1.3442,-1.3474,-1.3489,-1.3472,-1.351,-1.3522,-1.3548,-1.3558,-1.3543,-1.3598,-1.361,-1.366,-1.3676,-1.3686,-1.3696,-1.3679,-1.3749,-1.3756,-1.3762,-1.3784,-1.3793,-1.3688,-1.3688,-1.3687,-1.3687,0,-1.3484,-1.3513,-1.354,-1.3565,-1.3583,-1.3617,-1.3617,-1.3635,-1.363,-1.3633,-1.3674,-1.3687,-1.3713,-1.3725,-1.372,-1.3774,-1.3765,-1.375,-1.3723,-1.3774,-1.3795,-1.3803,-1.3691,-1.369,-1.369,-1.3689,0,0,-1.3569,-1.3589,-1.3599,-1.361,-1.3628,-1.3651,-1.3684,-1.3709,-1.3725,-1.3742,-1.377,-1.3808,-1.3793,-1.3808,-1.3804,-1.3827,-1.3878,-1.3809,-1.3809,-1.3822,-1.3938,-1.3951,-1.3961,-1.387,-1.3872,-1.3873,-1.3937,0,-1.3633,-1.3692,-1.3687,-1.3742,-1.3769,-1.3753,-1.3782,-1.3796,-1.3799,-1.3822,-1.3826,-1.3853,-1.3831,-1.384,-1.3862,-1.3868,-1.3902,-1.3863,-1.3897,-1.3898,-1.3894,-1.3972,-1.3985,-1.4045,-1.3945,-1.3946,-1.3947,0,-1.3717,-1.3737,-1.3794,-1.3807,-1.3818,-1.3844,-1.3867,-1.3889,-1.3904,-1.3905,-1.392,-1.3912,-1.3945,-1.3916,-1.3961,-1.3935,-1.3948,-1.3952,-1.3954,-1.3959,-1.3927,-1.3979,-1.4064,-1.4073,-1.396,-1.3959,-1.3958,0,-1.3774,-1.3815,-1.3854,-1.3864,-1.388,-1.3898,-1.3906,-1.3919,-1.3934,-1.3953,-1.3963,-1.3986,-1.3999,-1.4016,-1.4014,-1.3993,-1.406,-1.4031,-1.4062,-1.4062,-1.4078,-1.4078,-1.4168,-1.4085,-1.4085,-1.4085,-1.4085,0,-1.3847,-1.3883,-1.388,-1.3905,-1.3944,-1.3938,-1.3977,-1.3982,-1.3994,-1.4019,-1.4005,-1.4029,-1.4024,-1.4048,-1.4046,-1.4084,-1.409,-1.4091,-1.4091,-1.4093,-1.4093,-1.4103,-1.4099,-1.4087,-1.4087,-1.4086,-1.4086,0,-1.3918,-1.3918,-1.396,-1.3971,-1.3974,-1.4003,-1.4012,-1.4035,-1.4036,-1.4068,-1.4075,-1.4077,-1.4104,-1.4103,-1.4134,-1.4132,-1.4179,-1.4173,-1.4174,-1.4173,-1.4204,-1.4201,-1.4304,-1.4317,-1.4226,-1.4227,-1.4227,0,-1.3965,-1.3993,-1.4006,-1.4022,-1.403,-1.4055,-1.407,-1.4065,-1.4081,-1.4099,-1.412,-1.4145,-1.4165,-1.4208,-1.4212,-1.4235,-1.423,-1.4265,-1.4234,-1.4235,-1.4231,-1.423,-1.4233,-1.4271,-1.4272,-1.4273,-1.4274,0,-1.4049,-1.4047,-1.4069,-1.4091,-1.4109,-1.4126,-1.4142,-1.4155,-1.4151,-1.4169,-1.4196,-1.4211,-1.4242,-1.4267,-1.4288,-1.4296,-1.4284,-1.4283,-1.4291,-1.4295,-1.4294,-1.4295,-1.4191,-1.4281,-1.428,-1.428,-1.4279,-1.4279,-1.4111,-1.4134,-1.4146,-1.4171,-1.4182,-1.4196,-1.4218,-1.4221,-1.4243,-1.4268,-1.4262,-1.4292,-1.4305,-1.4333,-1.4342,-1.4365,-1.4353,-1.4365,-1.4368,-1.4372,-1.4375,-1.429,-1.4369,-1.4369,-1.4368,-1.4368,-1.4368,0,-1.4194,-1.4201,-1.4224,-1.4245,-1.4265,-1.4251,-1.4267,-1.4284,-1.431,-1.4323,-1.4342,-1.4372,-1.4396,-1.4402,-1.4424,-1.4442,-1.4437,-1.4448,-1.4447,-1.4449,-1.4385,-1.4375,-1.4451,-1.4451,-1.4451,-1.4451,-1.4451,-1.4451,-1.424,-1.4279,-1.4278,-1.4321,-1.4327,-1.4356,-1.4366,-1.4379,-1.4389,-1.4423,-1.4443,-1.4446,-1.4455,-1.4478,-1.4499,-1.45,-1.4509,-1.4522,-1.4521,-1.4462,-1.4453,-1.4446,-1.4437,-1.4524,-1.4524,-1.4584,-1.4584,-1.4585]},{"header":{"parameterUnit":"m.s-1","parameterCategory":1,"la1":30.2991,"la2":30.254,"lo1":-89.0895,"lo2":-89.0444,"dy":0.0017,"dx":0.0017,"nx":28,"ny":28,"refTime":"2024-02-05T09:00:00:Z","depth":0,"parameterNumber":3,"parameterNumberName":"V-component_of_WINDS"},"data":[0,0,0,0,0,0,0,0,0,0,0,0,0,0,0,0,0,0,0,0,0,0,0,0,0,0,0,0,0,0,0,0,0,0,0,0,0,0,0,0,0,0,0,0,0,0,0,0,0,0,0,0,0,0,0,0,0,0,-7.6534,-7.6534,0,-7.6587,-7.6588,-7.6588,-7.6482,-7.6479,-7.6475,-7.6472,-7.6522,-7.6527,-7.6531,0,0,0,0,0,0,0,0,0,0,0,0,0,-7.6336,-7.634,-7.6534,-7.6534,-7.6535,-7.6587,-7.6588,-7.6588,-7.6483,-7.6478,-7.6474,-7.647,-7.6521,-7.6526,-7.6532,0,0,0,0,0,0,0,0,0,0,0,0,0,-7.6409,-7.6342,-7.6534,-7.6489,-7.6485,-7.6587,-7.6588,-7.6589,-7.6484,-7.6478,-7.6473,-7.6468,-7.6519,-7.6526,-7.6533,-7.6679,0,0,-7.6554,-7.6557,0,0,0,0,0,0,0,0,-7.6405,-7.6416,-7.6495,-7.6492,-7.6488,-7.6523,-7.6536,-7.6619,-7.6485,-7.6484,-7.6472,-7.6466,-7.6526,-7.6532,-7.6554,-7.6682,-7.6684,-7.6554,-7.6558,-7.6561,-7.6563,0,0,0,0,0,0,0,-7.64,-7.6413,-7.6555,-7.6496,-7.6492,-7.6464,-7.6469,-7.6552,-7.6534,-7.6484,-7.6476,-7.6484,-7.6524,-7.6547,-7.6554,-7.6684,-7.6554,-7.656,-7.6564,-7.6567,-7.6936,-7.6941,0,0,0,0,0,0,-7.6401,-7.641,-7.6553,-7.6556,-7.6433,-7.6472,-7.6477,-7.6517,-7.6532,-7.653,-7.6489,-7.6479,-7.6538,-7.6546,-7.6555,-7.6729,-7.6561,-7.6568,-7.6572,-7.693,-7.6937,-7.6943,0,0,0,0,0,0,-7.6397,-7.6415,-7.6551,-7.6481,-7.6496,-7.6481,-7.6526,-7.6521,-7.6544,-7.6536,-7.6532,-7.6516,-7.6534,-7.6546,-7.665,-7.6729,-7.6571,-7.6577,-7.6924,-7.6932,-7.694,-7.7077,0,0,0,0,0,0,-7.6392,-7.6414,-7.6471,-7.6483,-7.65,-7.6646,-7.6531,-7.6525,-7.6557,-7.6545,-7.6561,-7.6559,-7.6531,-7.664,-7.6657,-7.6736,-7.6582,-7.6916,-7.6928,-7.6938,-7.7066,-7.7089,-7.711,0,0,0,0,0,-7.6386,-7.6506,-7.6474,-7.6492,-7.6571,-7.6651,-7.666,-7.6627,-7.6564,-7.662,-7.6615,-7.6558,-7.6718,-7.6652,-7.6669,-7.6752,-7.6911,-7.6924,-7.6937,-7.7056,-7.7085,-7.7109,0,0,0,0,0,0,-7.6501,-7.6507,-7.6472,-7.66,-7.6626,-7.6632,-7.6702,-7.6659,-7.6702,-7.6689,-7.6644,-7.6649,-7.6762,-7.6767,-7.6693,-7.6895,-7.6804,-7.6821,-7.6888,-7.6916,-7.6937,-7.6934,-7.6588,0,0,0,0,0,-7.6542,-7.6608,-7.6608,-7.6721,-7.6736,-7.6718,-7.6751,-7.6723,-7.6748,-7.6758,-7.676,-7.6785,-7.684,-7.6878,-7.6928,-7.7065,-7.7068,-7.7131,-7.7153,-7.7171,-7.7187,-7.726,-7.7289,-7.6985,-7.6985,-7.6985,0,0,-7.6627,-7.6638,-7.6681,-7.6745,-7.6762,-7.683,-7.6727,-7.6803,-7.6853,-7.6768,-7.6868,-7.6871,-7.6895,-7.7017,-7.707,-7.7024,-7.7271,-7.7187,-7.7202,-7.7208,-7.7276,-7.7305,-7.7331,-7.6994,-7.6992,-7.6991,0,0,-7.6816,-7.6831,-7.6927,-7.6947,-7.6974,-7.6961,-7.6984,-7.6998,-7.6997,-7.7096,-7.7035,-7.7092,-7.7189,-7.7209,-7.7232,-7.743,-7.738,-7.7448,-7.7564,-7.7636,-7.766,-7.7681,-7.7752,-7.7778,-7.7463,-7.7463,-7.7463,0,-7.6917,-7.7018,-7.6982,-7.7063,-7.7093,-7.7021,-7.7118,-7.7138,-7.718,-7.7202,-7.715,-7.7271,-7.7282,-7.7408,-7.7457,-7.7477,-7.7502,-7.7446,-7.766,-7.768,-7.7699,-7.7767,-7.7794,-7.7471,-7.747,-7.7469,-7.7469,0,-7.7142,-7.7213,-7.7288,-7.7333,-7.737,-7.7459,-7.7435,-7.7478,-7.7447,-7.7439,-7.7541,-7.7552,-7.7604,-7.7632,-7.7601,-7.7754,-7.7725,-7.7667,-7.7574,-7.7737,-7.78,-7.7825,-7.7483,-7.748,-7.7478,-7.7476,0,0,-7.7406,-7.743,-7.7458,-7.7478,-7.7504,-7.7557,-7.7642,-7.7695,-7.7733,-7.7764,-7.7834,-7.7918,-7.7866,-7.7892,-7.7863,-7.7927,-7.8084,-7.7861,-7.7861,-7.7903,-7.8253,-7.8298,-7.8328,-7.8051,-7.8055,-7.8059,-7.8252,0,-7.7594,-7.7743,-7.7713,-7.7858,-7.7924,-7.7857,-7.7931,-7.7954,-7.7949,-7.8003,-7.7996,-7.8057,-7.7982,-7.7998,-7.8057,-7.8053,-7.8154,-7.8038,-7.8115,-7.8119,-7.8113,-7.8361,-7.8408,-7.8589,-7.8276,-7.828,-7.8283,0,-7.7834,-7.7877,-7.803,-7.8046,-7.8072,-7.814,-7.8186,-7.8239,-7.8263,-7.8255,-7.8285,-7.8244,-7.8328,-7.8234,-7.8349,-7.8271,-7.83,-7.8303,-7.8309,-7.8316,-7.8212,-7.8376,-7.8646,-7.8674,-7.8321,-7.8318,-7.8315,0,-7.8013,-7.8108,-7.8213,-7.8231,-7.8252,-7.8302,-7.8312,-7.8332,-7.8366,-7.8405,-7.8427,-7.8476,-7.8502,-7.854,-7.8514,-7.8448,-7.8633,-7.8537,-7.8629,-7.863,-7.8672,-7.867,-7.8952,-7.8689,-7.8689,-7.8688,-7.8688,0,-7.8228,-7.8324,-7.8294,-7.8358,-7.8463,-7.8427,-7.8532,-7.8535,-7.8553,-7.8616,-7.8559,-7.8619,-7.858,-7.8636,-7.8615,-7.8714,-7.8726,-7.8721,-7.8715,-7.8727,-7.8728,-7.8747,-7.8734,-7.8695,-7.8694,-7.8692,-7.8691,0,-7.8446,-7.8429,-7.8538,-7.855,-7.8555,-7.8633,-7.8642,-7.8701,-7.8692,-7.8772,-7.8788,-7.8774,-7.8837,-7.8814,-7.8881,-7.8867,-7.8993,-7.8969,-7.8986,-7.898,-7.9074,-7.9066,-7.9379,-7.9419,-7.913,-7.9132,-7.9135,0,-7.8584,-7.8657,-7.8677,-7.8716,-7.8732,-7.8795,-7.883,-7.8797,-7.8835,-7.8869,-7.8925,-7.8983,-7.9029,-7.9133,-7.9127,-7.9178,-7.9156,-7.9262,-7.9163,-7.9174,-7.9159,-7.9156,-7.9163,-7.9283,-7.9286,-7.9289,-7.9291,0,-7.8833,-7.8821,-7.8875,-7.8927,-7.8971,-7.9009,-7.9042,-7.9076,-7.9045,-7.9091,-7.9156,-7.9192,-7.9261,-7.932,-7.9366,-7.9375,-7.9329,-7.9322,-7.9346,-7.936,-7.9367,-7.9366,-7.9041,-7.9315,-7.9313,-7.9311,-7.931,-7.9309,-7.9016,-7.9078,-7.9103,-7.9165,-7.9187,-7.9219,-7.9276,-7.9275,-7.9329,-7.9384,-7.936,-7.9436,-7.9458,-7.9516,-7.9532,-7.9589,-7.9548,-7.9583,-7.9592,-7.9601,-7.9614,-7.9358,-7.9597,-7.9597,-7.9596,-7.9595,-7.9595,0,-7.9263,-7.9276,-7.9333,-7.9382,-7.9431,-7.9384,-7.9418,-7.9461,-7.9529,-7.9555,-7.9601,-7.9677,-7.9734,-7.9733,-7.9786,-7.9833,-7.9813,-7.9848,-7.9845,-7.9848,-7.9647,-7.9622,-7.9863,-7.9863,-7.9863,-7.9863,-7.9863,-7.9863,-7.9397,-7.95,-7.9492,-7.9606,-7.9617,-7.9692,-7.9716,-7.9745,-7.9766,-7.9853,-7.9901,-7.9901,-7.9916,-7.997,-8.002,-8.0018,-8.0041,-8.0085,-8.0075,-7.9888,-7.9862,-7.9836,-7.9812,-8.0089,-8.009,-8.027,-8.0272,-8.0273]}]]